Tracking 31027 objects as of 19-Jul-2025
HD Live streaming from Space Station
objects crossing your sky now

FENGYUN 1C DEB

Track FENGYUN 1C DEB now!
10-day predictions


NORAD ID: 30327
Int'l Code: 1999-025AAN
Perigee: 759.4 km
Apogee: 929.5 km
Inclination: 98.5 °
Period: 101.7 minutes
Semi major axis: 7215 km
RCS: 0.0095 m2 (small)
Launch date: May 10, 1999
Source: People's Republic of China (PRC)
Launch site: Taiyaun Space Center, China (TSC)

Note: This is SATELLITE DEBRIS
Your satellite tracking list
STARLINK-31611
Track 1 satellite(s)




NASA's NSSDC Master Catalog

Two Line Element Set (TLE):
1 30327U 99025AAN 25199.48913410  .00002158  00000-0  10329-2 0  9999
2 30327  98.4500 101.0965 0117866 208.7212 331.6359 14.16468649943573
Source of the keplerian elements: AFSPC